period_start,C,m1,H,J0,J1,J2,J3,J4,J5,JA,JB,JC,JD,JJ,JK,JN,#
2018-05-15 00:00:24,-0.01,0.05,0.00,23.61,26.75,29.71,13.92,46.92,1018.57,2029.75,3452.06,3078.91,3538.12,600.06,596.02,1.78,0000 0000 0000 0000 000000
2018-05-15 00:05:26,0.03,0.05,0.00,23.62,26.77,29.70,13.89,46.90,1018.57,2029.52,3451.64,3078.23,3537.85,599.91,595.82,1.83,0000 0000 0000 0000 000000
2018-05-15 00:10:27,-0.01,0.05,0.00,23.66,26.79,29.70,13.85,46.92,1018.59,2029.21,3451.00,3078.00,3537.06,599.95,595.91,1.88,0000 0000 0000 0000 000000
2018-05-15 00:15:28,0.03,0.05,0.00,23.69,26.80,29.73,13.94,46.85,1018.58,2029.16,3450.34,3077.64,3536.80,600.22,596.26,1.93,0000 0000 0000 0000 000000
2018-05-15 00:20:29,0.01,0.05,0.00,23.71,26.82,29.77,13.91,46.91,1018.58,2029.07,3449.82,3077.03,3536.06,600.05,595.81,1.98,0000 0000 0000 0000 000000
2018-05-15 00:25:31,0.01,0.05,0.00,23.73,26.84,29.79,13.91,46.94,1018.59,2029.03,3449.04,3076.94,3535.77,600.13,595.77,2.03,0000 0000 0000 0000 000000
2018-05-15 00:30:32,0.04,0.05,0.00,23.75,26.85,29.77,13.91,46.89,1018.62,2029.01,3448.57,3076.18,3535.03,600.26,596.11,2.08,0000 0000 0000 0000 000000
2018-05-15 00:35:34,0.02,0.05,0.00,23.77,26.87,29.81,13.89,46.83,1018.65,2029.00,3447.92,3075.87,3534.26,599.89,595.62,2.13,0000 0000 0000 0000 000000
2018-05-15 00:40:35,0.03,0.05,0.00,23.81,26.89,29.82,13.89,46.84,1018.59,2029.00,3447.12,3075.14,3533.91,600.00,595.60,2.18,0000 0000 0000 0000 000000
2018-05-15 00:45:36,0.02,0.06,0.00,23.84,26.91,29.87,13.93,46.88,1018.58,2028.99,3446.47,3074.96,3533.11,599.96,595.31,2.23,0000 0000 0000 0000 000000
2018-05-15 00:50:37,0.03,0.06,0.00,23.86,26.93,29.87,13.87,46.87,1018.58,2028.99,3445.95,3074.38,3532.73,600.04,595.48,2.28,0000 0000 0000 0000 000000
2018-05-15 00:55:38,0.02,0.06,0.00,23.89,26.95,29.87,13.89,46.88,1018.57,2028.97,3445.12,3074.00,3532.02,600.04,595.52,2.33,0000 0000 0000 0000 000000
2018-05-15 01:00:40,0.03,0.06,0.00,23.92,26.97,29.91,13.88,46.79,1018.57,2028.97,3444.58,3073.66,3531.68,600.11,595.43,2.38,0000 0000 0000 0000 000000
2018-05-15 01:05:41,0.01,0.06,0.00,23.95,27.00,29.91,13.74,46.78,1018.57,2028.91,3443.89,3073.02,3531.01,599.80,595.08,2.43,0000 0000 0000 0000 000000
2018-05-15 01:10:43,0.01,0.06,0.00,23.97,27.02,29.95,13.94,46.83,1018.57,2028.69,3443.10,3072.72,3530.37,600.26,595.44,2.48,0000 0000 0000 0000 000000
2018-05-15 01:15:44,-0.00,0.06,0.00,24.00,27.04,29.94,13.90,46.91,1018.57,2028.22,3442.47,3072.04,3529.78,600.07,595.19,2.53,0000 0000 0000 0000 000000
2018-05-15 01:20:45,0.03,0.06,0.00,24.01,27.06,29.98,13.88,46.88,1018.57,2028.04,3441.72,3071.62,3529.04,599.93,595.03,2.58,0000 0000 0000 0000 000000
2018-05-15 01:25:46,0.03,0.06,0.00,24.04,27.09,30.00,13.82,46.84,1018.57,2028.02,3440.94,3071.03,3528.45,599.83,594.90,2.63,0000 0000 0000 0000 000000
2018-05-15 01:30:47,0.03,0.07,0.00,24.06,27.11,30.06,13.90,46.83,1018.57,2028.00,3440.08,3070.72,3527.82,600.16,595.20,2.68,0000 0000 0000 0000 000000
2018-05-15 01:35:48,0.03,0.07,0.00,24.08,27.13,30.05,13.84,46.77,1018.57,2028.00,3439.30,3070.03,3527.04,599.84,594.80,2.73,0000 0000 0000 0000 000000
2018-05-15 01:40:50,0.04,0.07,0.00,24.11,27.16,30.10,14.04,46.94,1018.57,2028.00,3438.38,3069.51,3526.33,600.42,595.24,2.78,0000 0000 0000 0000 000000
2018-05-15 01:45:51,0.04,0.07,0.00,24.14,27.18,30.09,13.89,46.80,1018.57,2027.99,3437.30,3068.79,3525.48,600.03,594.92,2.83,0000 0000 0000 0000 000000
2018-05-15 01:50:52,0.03,0.07,0.00,24.16,27.20,30.13,13.86,46.76,1018.57,2027.96,3436.14,3068.04,3524.73,599.79,594.67,2.88,0000 0000 0000 0000 000000
2018-05-15 01:55:54,0.02,0.08,0.00,24.18,27.23,30.18,13.92,46.83,1018.57,2027.95,3435.57,3067.82,3524.04,600.06,594.86,2.93,0000 0000 0000 0000 000000
2018-05-15 02:00:55,0.01,0.08,0.00,24.21,27.25,30.20,14.01,46.88,1018.56,2027.75,3434.65,3067.04,3523.38,600.08,594.83,2.98,0000 0000 0000 0000 000000
2018-05-15 02:05:56,-0.01,0.08,0.00,24.23,27.27,30.22,13.95,46.92,1018.48,2027.34,3433.95,3066.57,3522.82,599.95,594.70,3.03,0000 0000 0000 0000 000000
2018-05-15 02:10:58,0.02,0.08,0.00,24.27,27.30,30.26,13.95,46.77,1018.53,2027.06,3433.12,3066.01,3522.04,600.02,594.63,3.08,0000 0000 0000 0000 000000
2018-05-15 02:15:59,0.04,0.08,0.00,24.29,27.32,30.26,13.85,46.82,1018.47,2027.02,3432.15,3065.35,3521.30,599.84,594.43,3.13,0000 0000 0000 0000 000000
2018-05-15 02:21:00,0.03,0.08,0.00,24.31,27.35,30.28,13.94,46.84,1018.28,2027.01,3431.13,3064.90,3520.66,599.91,594.30,3.18,0000 0000 0000 0000 000000
2018-05-15 02:26:01,0.04,0.08,0.00,24.33,27.37,30.34,13.96,46.88,1018.22,2027.00,3430.02,3064.07,3519.91,600.22,594.51,3.23,0000 0000 0000 0000 000000
2018-05-15 02:31:03,0.03,0.08,0.00,24.35,27.40,30.31,13.91,46.91,1018.14,2027.00,3429.12,3063.72,3519.10,600.11,594.33,3.28,0000 0000 0000 0000 000000
2018-05-15 02:36:04,0.03,0.09,0.00,24.38,27.42,30.32,13.91,47.07,1018.09,2026.99,3428.44,3063.02,3518.58,599.96,594.06,3.33,0000 0000 0000 0000 000000
2018-05-15 02:41:05,0.06,0.09,0.00,24.40,27.44,30.33,13.88,47.10,1018.08,2026.99,3427.19,3062.15,3517.43,600.09,594.25,3.38,0000 0000 0000 0000 000000
2018-05-15 02:46:07,0.04,0.09,0.00,24.40,27.46,30.41,13.91,47.04,1018.08,2026.95,3426.09,3061.33,3516.65,600.05,594.05,3.43,0000 0000 0000 0000 000000
2018-05-15 02:51:08,0.01,0.09,0.00,24.41,27.49,30.45,13.88,47.13,1018.13,2026.74,3425.35,3060.94,3516.00,600.02,594.13,3.48,0000 0000 0000 0000 000000
2018-05-15 02:56:09,-0.00,0.09,0.00,24.42,27.51,30.44,13.80,46.86,1018.51,2026.32,3424.91,3060.21,3515.33,599.61,593.86,3.53,0000 0000 0000 0000 000000
2018-05-15 03:01:11,0.01,0.09,0.00,24.42,27.52,30.44,13.87,46.90,1018.57,2026.24,3424.09,3060.00,3514.96,599.95,594.21,3.58,0000 0000 0000 0000 000000
2018-05-15 03:06:12,0.03,0.09,0.00,24.43,27.55,30.46,13.83,46.81,1018.57,2026.11,3423.49,3059.45,3514.23,599.88,594.27,3.63,0000 0000 0000 0000 000000
2018-05-15 03:11:13,0.01,0.10,0.00,24.46,27.57,30.49,13.86,46.83,1018.57,2026.04,3422.76,3058.99,3513.71,600.26,594.58,3.68,0000 0000 0000 0000 000000
2018-05-15 03:16:14,0.03,0.10,0.00,24.48,27.59,30.48,13.85,46.82,1018.57,2026.00,3421.93,3058.33,3512.99,599.83,594.01,3.73,0000 0000 0000 0000 000000
2018-05-15 03:21:16,0.03,0.10,0.00,24.51,27.61,30.49,13.78,46.82,1018.58,2026.00,3421.06,3057.91,3512.17,600.06,594.26,3.78,0000 0000 0000 0000 000000
2018-05-15 03:26:17,0.04,0.10,0.00,24.54,27.62,30.54,13.84,46.91,1018.57,2025.99,3420.28,3057.16,3511.81,600.00,594.31,3.83,0000 0000 0000 0000 000000
2018-05-15 03:31:18,0.02,0.10,0.00,24.56,27.65,30.58,13.88,46.87,1018.57,2025.99,3419.66,3056.94,3511.05,600.27,594.24,3.88,0000 0000 0000 0000 000000
2018-05-15 03:36:19,0.04,0.11,0.00,24.58,27.67,30.58,13.88,46.84,1018.57,2025.98,3418.94,3056.14,3510.30,600.01,594.05,3.93,0000 0000 0000 0000 000000
2018-05-15 03:41:21,0.01,0.11,0.00,24.60,27.69,30.58,13.83,46.77,1018.57,2025.94,3418.08,3055.95,3509.85,599.81,593.72,3.99,0000 0000 0000 0000 000000
2018-05-15 03:46:22,0.03,0.11,0.00,24.62,27.71,30.62,13.98,46.76,1018.57,2025.82,3417.29,3055.14,3509.05,600.20,594.06,4.04,0000 0000 0000 0000 000000
2018-05-15 03:51:23,0.00,0.11,0.00,24.65,27.73,30.64,13.78,46.73,1018.57,2025.50,3416.59,3054.86,3508.44,599.71,593.68,4.09,0000 0000 0000 0000 000000
2018-05-15 03:56:25,0.01,0.11,0.00,24.67,27.75,30.67,13.95,46.78,1018.57,2025.22,3415.84,3054.07,3507.84,600.36,594.21,4.14,0000 0000 0000 0000 000000
2018-05-15 04:01:26,0.02,0.11,0.00,24.68,27.77,30.69,13.81,46.67,1018.57,2025.09,3415.04,3053.80,3507.08,600.10,593.92,4.19,0000 0000 0000 0000 000000
2018-05-15 04:06:27,0.03,0.11,0.00,24.68,27.80,30.74,14.00,46.83,1018.67,2025.04,3414.24,3053.04,3506.57,600.43,594.37,4.24,0000 0000 0000 0000 000000
2018-05-15 04:11:29,0.06,0.11,0.00,24.70,27.82,30.73,13.82,46.63,1018.82,2025.00,3412.90,3052.22,3505.46,599.94,593.98,4.29,0000 0000 0000 0000 000000
2018-05-15 04:16:30,0.03,0.12,0.00,24.71,27.84,30.79,13.88,46.72,1018.85,2025.00,3411.99,3051.47,3504.63,600.15,594.08,4.34,0000 0000 0000 0000 000000
2018-05-15 04:21:31,0.02,0.12,0.00,24.74,27.86,30.76,13.87,46.70,1018.79,2025.00,3411.16,3050.97,3503.93,599.88,593.70,4.39,0000 0000 0000 0000 000000
2018-05-15 04:26:32,0.06,0.12,0.00,24.76,27.88,30.81,13.83,46.67,1018.70,2024.99,3409.96,3050.08,3502.89,599.80,593.52,4.44,0000 0000 0000 0000 000000
2018-05-15 04:31:34,0.06,0.12,0.00,24.78,27.90,30.82,13.91,46.66,1018.68,2024.97,3408.43,3049.06,3501.70,600.12,593.73,4.49,0000 0000 0000 0000 000000
2018-05-15 04:36:35,0.02,0.13,0.00,24.82,27.92,30.85,13.87,46.63,1018.60,2024.95,3407.78,3048.45,3501.01,600.08,593.63,4.54,0000 0000 0000 0000 000000
2018-05-15 04:41:36,0.01,0.13,0.00,24.86,27.95,30.85,13.86,46.65,1018.61,2024.81,3406.94,3047.99,3500.33,600.19,593.76,4.59,0000 0000 0000 0000 000000
2018-05-15 04:46:37,0.01,0.13,0.00,24.87,27.97,30.84,13.78,46.61,1018.66,2024.45,3406.03,3047.26,3499.64,599.57,593.16,4.64,0000 0000 0000 0000 000000
2018-05-15 04:51:39,0.02,0.13,0.00,24.90,27.99,30.90,13.83,46.66,1018.66,2024.12,3405.08,3046.77,3498.97,599.92,593.33,4.69,0000 0000 0000 0000 000000
2018-05-15 04:56:40,0.03,0.13,0.00,24.93,28.01,30.92,13.82,46.58,1018.62,2024.04,3404.08,3046.01,3498.11,600.03,593.41,4.74,0000 0000 0000 0000 000000
2018-05-15 05:01:42,0.05,0.13,0.00,24.96,28.04,30.92,13.80,46.62,1018.59,2024.02,3403.17,3045.38,3497.40,600.05,593.30,4.79,0000 0000 0000 0000 000000
2018-05-15 05:06:43,0.02,0.13,0.00,24.98,28.06,30.95,13.78,46.73,1018.59,2024.00,3402.40,3044.96,3496.80,600.00,593.18,4.84,0000 0000 0000 0000 000000
2018-05-15 05:11:44,0.04,0.14,0.00,25.00,28.08,30.99,13.84,46.61,1018.58,2023.99,3401.47,3044.18,3496.02,600.14,593.38,4.89,0000 0000 0000 0000 000000
2018-05-15 05:16:46,0.02,0.14,0.00,25.01,28.11,31.02,13.85,46.63,1018.58,2023.99,3400.71,3043.89,3495.28,600.27,593.44,4.94,0000 0000 0000 0000 000000
2018-05-15 05:21:47,0.05,0.14,0.00,25.04,28.13,31.06,13.85,46.72,1018.58,2023.99,3399.79,3043.07,3494.69,599.88,592.95,4.99,0000 0000 0000 0000 000000
2018-05-15 05:26:48,0.04,0.14,0.00,25.05,28.15,31.04,13.80,46.62,1018.59,2023.99,3398.84,3042.51,3493.98,599.76,592.84,5.04,0000 0000 0000 0000 000000
2018-05-15 05:31:49,0.02,0.14,0.00,25.08,28.17,31.06,13.86,46.54,1018.62,2023.95,3398.00,3042.00,3493.14,599.96,593.06,5.09,0000 0000 0000 0000 000000
2018-05-15 05:36:50,0.03,0.15,0.00,25.11,28.19,31.15,13.75,46.52,1018.61,2023.90,3397.19,3041.52,3492.77,599.84,592.83,5.14,0000 0000 0000 0000 000000
2018-05-15 05:41:51,0.00,0.15,0.00,25.12,28.21,31.11,13.74,46.48,1018.70,2023.60,3396.48,3041.00,3492.03,599.76,592.87,5.19,0000 0000 0000 0000 000000
2018-05-15 05:46:53,0.02,0.15,0.00,25.15,28.24,31.16,13.81,46.57,1018.95,2023.32,3395.71,3040.41,3491.48,599.94,592.98,5.24,0000 0000 0000 0000 000000
2018-05-15 05:51:54,0.01,0.15,0.00,25.15,28.26,31.16,13.79,46.58,1019.03,2023.07,3394.75,3039.94,3490.78,599.94,593.16,5.29,0000 0000 0000 0000 000000
2018-05-15 05:56:55,0.07,0.15,0.00,25.17,28.28,31.19,13.94,46.60,1019.03,2023.03,3393.36,3038.88,3489.62,600.45,593.49,5.34,0000 0000 0000 0000 000000
2018-05-15 06:01:57,0.08,0.15,0.00,25.20,28.30,31.20,13.78,46.53,1019.06,2023.01,3391.56,3037.64,3488.10,599.96,593.07,5.39,0000 0000 0000 0000 000000
2018-05-15 06:06:58,0.07,0.16,0.00,25.21,28.32,31.21,13.85,46.63,1019.06,2023.00,3390.01,3036.39,3486.71,599.85,592.82,5.44,0000 0000 0000 0000 000000
2018-05-15 06:11:59,0.05,0.16,0.00,25.22,28.35,31.24,13.89,46.61,1019.06,2023.00,3388.73,3035.63,3485.78,599.80,592.82,5.49,0000 0000 0000 0000 000000
2018-05-15 06:17:00,0.06,0.16,0.00,25.22,28.37,31.27,13.87,46.59,1019.06,2023.00,3387.43,3034.65,3484.67,600.06,593.07,5.54,0000 0000 0000 0000 000000
2018-05-15 06:22:01,0.07,0.17,0.00,25.24,28.39,31.30,13.82,46.58,1019.06,2022.97,3385.83,3033.45,3483.36,600.03,593.01,5.59,0000 0000 0000 0000 000000
2018-05-15 06:27:03,0.05,0.17,0.00,25.25,28.41,31.34,13.78,46.63,1019.06,2022.94,3384.38,3032.54,3482.15,599.81,592.81,5.64,0000 0000 0000 0000 000000
2018-05-15 06:32:04,0.00,0.17,0.00,25.27,28.43,31.34,13.78,46.52,1019.06,2022.40,3382.88,3031.45,3480.97,599.86,592.78,5.69,0000 0000 0000 0000 000000
2018-05-15 06:37:05,0.04,0.17,0.00,25.29,28.46,31.37,13.81,46.62,1019.06,2022.08,3381.70,3030.63,3479.97,599.75,592.60,5.74,0000 0000 0000 0000 000000
2018-05-15 06:42:07,0.06,0.18,0.00,25.30,28.47,31.40,13.87,46.66,1019.06,2022.02,3380.32,3029.70,3478.87,599.86,592.77,5.79,0000 0000 0000 0000 000000
2018-05-15 06:47:08,0.08,0.18,0.00,25.32,28.50,31.42,13.85,46.59,1019.06,2022.00,3378.58,3028.51,3477.49,600.16,592.95,5.84,0000 0000 0000 0000 000000
2018-05-15 06:52:09,0.07,0.18,0.00,25.33,28.52,31.44,13.85,46.51,1019.06,2022.00,3376.83,3027.32,3476.16,600.27,593.00,5.89,0000 0000 0000 0000 000000
2018-05-15 06:57:11,0.06,0.19,0.00,25.35,28.54,31.49,13.89,46.50,1019.08,2022.00,3375.34,3026.24,3474.97,600.11,592.82,5.94,0000 0000 0000 0000 000000
2018-05-15 07:02:12,0.09,0.19,0.00,25.35,28.56,31.46,13.84,46.52,1019.07,2022.00,3373.42,3025.01,3473.55,600.02,592.77,5.99,0000 0000 0000 0000 000000
2018-05-15 07:07:13,0.10,0.20,0.00,25.36,28.57,31.47,13.88,46.48,1019.07,2021.99,3370.92,3023.34,3471.55,600.21,592.92,6.04,0000 0000 0000 0000 000000
2018-05-15 07:12:15,0.11,0.20,0.00,25.38,28.60,31.53,13.83,46.61,1019.07,2021.98,3368.61,3021.73,3469.75,600.25,592.97,6.09,0000 0000 0000 0000 000000
2018-05-15 07:17:16,0.10,0.21,0.00,25.40,28.61,31.54,13.79,46.56,1019.06,2021.95,3366.27,3020.04,3467.80,599.64,592.28,6.14,0000 0000 0000 0000 000000
2018-05-15 07:22:18,0.10,0.21,0.00,25.43,28.63,31.53,13.80,46.58,1019.07,2021.91,3364.04,3018.49,3466.06,600.22,592.78,6.19,0000 0000 0000 0000 000000
2018-05-15 07:27:19,0.09,0.22,0.00,25.45,28.65,31.55,13.86,46.51,1019.08,2021.67,3361.34,3016.61,3463.88,600.15,592.73,6.25,0000 0000 0000 0000 000000
2018-05-15 07:32:20,0.04,0.22,0.00,25.45,28.67,31.58,13.83,46.48,1019.08,2021.16,3359.50,3015.25,3462.37,600.20,592.95,6.30,0000 0000 0000 0000 000000
2018-05-15 07:37:22,0.03,0.22,0.00,25.47,28.69,31.65,13.79,46.40,1019.13,2021.03,3358.56,3014.73,3461.69,600.19,592.81,6.35,0000 0000 0000 0000 000000
2018-05-15 07:42:23,0.02,0.22,0.00,25.47,28.71,31.62,13.76,46.48,1019.25,2021.01,3357.96,3014.04,3461.03,600.20,592.80,6.40,0000 0000 0000 0000 000000
2018-05-15 07:47:24,0.02,0.23,0.00,25.50,28.72,31.64,13.87,46.51,1019.23,2021.01,3357.15,3013.91,3460.65,600.04,592.70,6.45,0000 0000 0000 0000 000000
2018-05-15 07:52:26,0.09,0.23,0.00,25.52,28.74,31.65,13.88,46.46,1019.19,2021.00,3355.70,3012.60,3459.43,600.27,592.78,6.50,0000 0000 0000 0000 000000
2018-05-15 07:57:27,0.03,0.23,0.00,25.52,28.76,31.70,13.86,46.62,1019.23,2021.00,3354.38,3011.95,3458.41,599.96,592.57,6.55,0000 0000 0000 0000 000000
2018-05-15 08:02:28,0.03,0.23,0.00,25.52,28.77,31.70,13.82,46.65,1019.17,2021.00,3353.74,3011.20,3457.87,599.93,592.48,6.60,0000 0000 0000 0000 000000
2018-05-15 08:07:29,0.02,0.24,0.00,25.52,28.79,31.68,13.82,46.59,1019.14,2021.00,3352.86,3010.91,3457.07,599.91,592.37,6.65,0000 0000 0000 0000 000000
2018-05-15 08:12:30,0.04,0.24,0.00,25.52,28.80,31.74,13.83,46.51,1019.12,2020.98,3352.00,3010.11,3456.43,599.86,592.26,6.70,0000 0000 0000 0000 000000
2018-05-15 08:17:32,0.03,0.24,0.00,25.52,28.82,31.75,13.79,46.51,1019.08,2020.97,3351.15,3009.72,3455.87,600.06,592.44,6.75,0000 0000 0000 0000 000000
2018-05-15 08:22:33,0.03,0.24,0.00,25.53,28.83,31.75,13.80,46.56,1019.07,2020.87,3350.35,3009.04,3455.06,599.86,592.33,6.80,0000 0000 0000 0000 000000
2018-05-15 08:27:35,0.01,0.24,0.00,25.53,28.85,31.77,13.83,46.61,1019.07,2020.67,3349.66,3008.69,3454.49,600.01,592.47,6.85,0000 0000 0000 0000 000000
2018-05-15 08:32:36,0.00,0.24,0.00,25.54,28.86,31.78,13.84,46.62,1019.09,2020.33,3349.01,3008.05,3454.01,600.37,592.90,6.90,0000 0000 0000 0000 000000
2018-05-15 08:37:37,0.00,0.24,0.00,25.52,28.87,31.75,13.82,46.51,1019.14,2020.16,3348.23,3007.98,3453.41,600.10,592.63,6.95,0000 0000 0000 0000 000000
2018-05-15 08:42:39,0.04,0.24,0.00,25.52,28.88,31.75,13.75,46.59,1019.23,2020.07,3347.49,3007.26,3452.79,599.55,592.08,7.00,0000 0000 0000 0000 000000
2018-05-15 08:47:40,0.02,0.25,0.00,25.52,28.90,31.78,13.85,46.61,1019.51,2020.04,3346.48,3006.91,3452.04,599.85,592.54,7.05,0000 0000 0000 0000 000000
2018-05-15 08:52:41,0.03,0.25,0.00,25.51,28.90,31.77,13.81,46.58,1019.53,2020.03,3345.97,3006.24,3451.57,599.73,592.45,7.10,0000 0000 0000 0000 000000
2018-05-15 08:57:42,0.02,0.25,0.00,25.48,28.91,31.81,13.87,46.51,1019.54,2020.02,3345.20,3006.00,3451.01,600.15,592.84,7.15,0000 0000 0000 0000 000000
2018-05-15 09:02:44,0.05,0.25,0.00,25.49,28.92,31.81,13.86,46.59,1019.54,2020.00,3344.54,3005.53,3450.35,599.92,592.69,7.20,0000 0000 0000 0000 000000
2018-05-15 09:07:45,0.01,0.25,0.00,25.48,28.92,31.81,13.82,46.63,1019.54,2020.00,3344.00,3005.02,3449.98,599.69,592.49,7.25,0000 0000 0000 0000 000000
2018-05-15 09:12:47,0.03,0.25,0.00,25.47,28.93,31.82,13.87,46.60,1019.55,2020.00,3343.22,3004.92,3449.33,600.04,592.81,7.30,0000 0000 0000 0000 000000
2018-05-15 09:17:48,0.03,0.25,0.00,25.45,28.95,31.82,13.85,46.49,1019.55,2020.00,3342.66,3004.17,3448.99,599.95,592.82,7.35,0000 0000 0000 0000 000000
2018-05-15 09:22:49,0.01,0.26,0.00,25.45,28.95,31.81,13.81,46.48,1019.55,2020.00,3342.01,3004.00,3448.40,600.52,593.37,7.40,0000 0000 0000 0000 000000
2018-05-15 09:27:50,0.03,0.26,0.00,25.45,28.95,31.81,13.93,46.56,1019.55,2020.00,3341.39,3003.70,3448.00,600.43,593.34,7.45,0000 0000 0000 0000 000000
2018-05-15 09:32:52,0.04,0.26,0.00,25.42,28.95,31.83,13.90,46.57,1019.55,2020.00,3340.77,3002.86,3447.40,600.57,593.19,7.50,0000 0000 0000 0000 000000
2018-05-15 09:37:53,0.02,0.26,0.00,25.41,28.95,31.83,13.85,46.54,1019.55,2020.00,3340.01,3002.06,3446.96,599.92,592.81,7.55,0000 0000 0000 0000 000000
2018-05-15 09:42:54,0.04,0.26,0.00,25.40,28.95,31.81,13.78,46.52,1019.56,2020.00,3339.21,3001.76,3446.20,599.54,592.69,7.60,0000 0000 0000 0000 000000
2018-05-15 09:47:56,0.02,0.26,0.00,25.38,28.95,31.85,13.81,46.48,1019.60,2020.00,3338.44,3001.08,3445.94,600.10,593.15,7.65,0000 0000 0000 0000 000000
2018-05-15 09:52:58,0.01,0.27,0.00,25.38,28.95,31.80,13.92,46.53,1019.71,2020.01,3338.00,3001.00,3445.25,600.16,593.15,7.70,0000 0000 0000 0000 000000
2018-05-15 09:57:59,0.02,0.27,0.00,25.37,28.95,31.83,13.85,46.55,1019.64,2020.00,3337.33,3000.81,3444.97,600.00,592.97,7.75,0000 0000 0000 0000 000000
2018-05-15 10:02:59,0.02,0.27,0.00,25.38,28.95,31.84,13.89,46.61,1019.67,2020.00,3336.97,3000.14,3444.37,600.63,593.54,7.80,0000 0000 0000 0000 000000
2018-05-15 10:08:01,0.02,0.27,0.00,25.37,28.95,31.83,13.85,46.61,1019.92,2020.00,3336.13,2999.97,3443.94,600.08,593.25,7.85,0000 0000 0000 0000 000000
2018-05-15 10:13:02,0.05,0.27,0.00,25.37,28.95,31.84,13.85,46.67,1020.01,2020.00,3335.19,2999.28,3443.14,599.85,593.14,7.90,0000 0000 0000 0000 000000
2018-05-15 10:18:03,0.00,0.27,0.00,25.36,28.95,31.83,13.92,46.63,1020.01,2020.00,3334.87,2999.00,3442.95,600.05,593.36,7.95,0000 0000 0000 0000 000000
2018-05-15 10:23:05,0.03,0.27,0.00,25.34,28.95,31.82,13.94,46.62,1020.01,2020.00,3334.06,2998.81,3442.19,600.39,593.60,8.00,0000 0000 0000 0000 000000
2018-05-15 10:28:06,0.03,0.28,0.00,25.32,28.95,31.82,13.85,46.69,1020.00,2020.00,3333.22,2998.06,3441.81,599.59,593.01,8.05,0000 0000 0000 0000 000000
2018-05-15 10:33:07,0.01,0.28,0.00,25.32,28.95,31.82,13.84,46.65,1020.03,2020.00,3332.84,2997.99,3441.11,599.92,593.21,8.10,0000 0000 0000 0000 000000
2018-05-15 10:38:09,0.03,0.28,0.00,25.32,28.95,31.81,13.84,46.63,1020.03,2020.00,3332.08,2997.49,3440.93,599.89,593.28,8.15,0000 0000 0000 0000 000000
2018-05-15 10:43:10,0.03,0.28,0.00,25.30,28.94,31.82,13.78,46.63,1020.03,2020.00,3331.51,2997.01,3440.22,599.72,593.18,8.20,0000 0000 0000 0000 000000
2018-05-15 10:48:12,0.00,0.28,0.00,25.30,28.93,31.79,13.86,46.66,1020.03,2020.00,3331.00,2996.98,3440.00,599.85,593.27,8.25,0000 0000 0000 0000 000000
2018-05-15 10:53:13,0.03,0.28,0.00,25.29,28.92,31.80,13.94,46.67,1020.03,2020.00,3330.49,2996.64,3439.66,599.92,593.25,8.30,0000 0000 0000 0000 000000
2018-05-15 10:58:14,0.01,0.28,0.00,25.28,28.92,31.80,13.83,46.54,1020.03,2020.00,3329.96,2996.06,3439.03,599.93,593.43,8.35,0000 0000 0000 0000 000000
2018-05-15 11:03:15,0.01,0.28,0.00,25.25,28.92,31.79,13.88,46.68,1020.03,2020.00,3329.28,2995.99,3438.83,599.91,593.41,8.40,0000 0000 0000 0000 000000
2018-05-15 11:08:17,0.01,0.28,0.00,25.25,28.91,31.76,13.83,46.63,1020.03,2020.00,3328.99,2995.90,3438.10,599.83,593.34,8.45,0000 0000 0000 0000 000000
2018-05-15 11:13:18,0.03,0.29,0.00,25.25,28.90,31.76,13.91,46.73,1020.03,2020.01,3328.56,2995.34,3437.99,599.73,593.30,8.50,0000 0000 0000 0000 000000
2018-05-15 11:18:19,0.02,0.29,0.00,25.25,28.90,31.77,13.75,46.76,1020.03,2020.00,3328.01,2995.01,3437.64,599.34,592.85,8.56,0000 0000 0000 0000 000000
2018-05-15 11:23:21,0.03,0.29,0.00,25.25,28.90,31.76,13.87,46.65,1020.03,2020.00,3327.24,2994.79,3436.99,599.66,593.15,8.61,0000 0000 0000 0000 000000
2018-05-15 11:28:22,0.04,0.29,0.00,25.23,28.89,31.76,13.89,46.58,1020.03,2020.01,3326.24,2994.06,3436.18,600.64,594.30,8.66,0000 0000 0000 0000 000000
2018-05-15 11:33:23,0.02,0.29,0.00,25.22,28.88,31.74,13.89,46.56,1020.04,2020.01,3325.63,2993.90,3435.85,599.96,593.52,8.71,0000 0000 0000 0000 000000
2018-05-15 11:38:25,0.04,0.29,0.00,25.21,28.87,31.74,13.90,46.67,1020.04,2020.01,3324.93,2993.13,3435.07,600.33,593.94,8.76,0000 0000 0000 0000 000000
2018-05-15 11:43:26,0.02,0.30,0.00,25.20,28.87,31.74,13.90,46.68,1020.04,2020.01,3324.10,2992.99,3434.68,600.24,593.79,8.81,0000 0000 0000 0000 000000
2018-05-15 11:48:27,0.02,0.30,0.00,25.16,28.86,31.72,13.88,46.63,1020.04,2020.02,3323.49,2992.84,3434.02,600.31,594.19,8.86,0000 0000 0000 0000 000000
2018-05-15 11:53:28,0.02,0.30,0.00,25.15,28.85,31.74,13.89,46.81,1020.04,2020.06,3323.03,2992.36,3433.96,599.89,593.66,8.91,0000 0000 0000 0000 000000
2018-05-15 11:58:30,0.03,0.30,0.00,25.14,28.85,31.71,13.88,46.64,1020.04,2020.04,3322.45,2992.02,3433.24,600.06,593.95,8.96,0000 0000 0000 0000 000000
2018-05-15 12:03:31,0.01,0.30,0.00,25.13,28.84,31.71,13.89,46.81,1020.04,2020.10,3322.00,2991.99,3433.00,599.61,593.38,9.01,0000 0000 0000 0000 000000
2018-05-15 12:08:33,0.03,0.30,0.00,25.11,28.82,31.72,13.95,46.72,1020.04,2020.07,3321.35,2991.77,3432.40,600.51,594.22,9.06,0000 0000 0000 0000 000000
2018-05-15 12:13:34,0.02,0.30,0.00,25.09,28.82,31.69,13.89,46.67,1020.04,2020.16,3320.97,2991.17,3432.01,600.17,594.03,9.11,0000 0000 0000 0000 000000
2018-05-15 12:18:35,0.03,0.30,0.00,25.08,28.80,31.70,13.95,46.72,1020.04,2020.18,3320.29,2991.00,3431.75,600.17,594.05,9.16,0000 0000 0000 0000 000000
2018-05-15 12:23:37,0.03,0.31,0.00,25.06,28.80,31.69,13.85,46.61,1020.04,2020.31,3319.96,2990.98,3431.05,599.71,593.43,9.21,0000 0000 0000 0000 000000
2018-05-15 12:28:38,0.04,0.31,0.00,25.05,28.78,31.68,13.86,46.63,1020.03,2020.45,3319.21,2990.51,3430.89,599.69,593.65,9.26,0000 0000 0000 0000 000000
2018-05-15 12:33:39,0.02,0.31,0.00,25.02,28.77,31.70,13.89,46.70,1020.03,2020.52,3318.80,2990.03,3430.14,600.17,594.18,9.31,0000 0000 0000 0000 000000
2018-05-15 12:38:40,0.03,0.31,0.00,25.00,28.75,31.69,13.96,46.77,1020.03,2020.63,3318.05,2989.99,3429.95,600.05,594.09,9.36,0000 0000 0000 0000 000000
2018-05-15 12:43:42,0.04,0.31,0.00,25.00,28.75,31.66,13.79,46.63,1020.03,2020.81,3317.53,2989.91,3429.16,599.17,593.24,9.41,0000 0000 0000 0000 000000
2018-05-15 12:48:43,0.03,0.31,0.00,24.97,28.72,31.64,13.90,46.66,1020.03,2020.91,3317.01,2989.40,3428.98,600.09,594.03,9.46,0000 0000 0000 0000 000000
2018-05-15 12:53:44,0.03,0.32,0.00,24.96,28.72,31.64,13.92,46.75,1020.02,2020.96,3316.50,2989.02,3428.44,599.83,594.05,9.51,0000 0000 0000 0000 000000
2018-05-15 12:58:46,0.00,0.32,0.00,24.95,28.70,31.64,13.88,46.64,1020.00,2020.96,3315.98,2989.00,3428.00,600.01,594.20,9.56,0000 0000 0000 0000 000000